User: anonymous
Location: Stamford Observatory
(41.1241°N, 73.5498°W)
Time: 03:23:47
(UTC-04:00)
Language:

IRS-P3 - Orbit

View from above orbital plane
View from above orbital plane
View from above satellite
View from above satellite

Ground track
Ground track

The orbit data is extracted from the following two-line orbital elements,

1 23827U 96017A   14211.42400963  .00000049  00000-0  41477-4 0   612
2 23827 098.6237 149.6404 0003270 183.9901 314.6539 14.22210383952755
Epoch (UTC): 30 July 2014 10:10:34
Eccentricity: 0.0003270
inclination: 98.6237°
perigee height: 815 km
apogee height: 820 km
right ascension of ascending node: 149.6404°
argument of perigee: 183.9901°
revolutions per day: 14.22210383
mean anomaly at epoch: 314.6539°
orbit number at epoch: 95275

The dashed part of the orbit path shows where the satellite is in the earth's shadow,  

DLR